STARLINK-2429, 47838

Orbit data source: Space-Track

STARLINK-2429, 47838 is a payload satellite owned by SpaceX/Seattle (US) in LEO that was launched on Thu, 11 Mar 2021 UTC via an FALCON 9 launch vehicle from the Air Force Eastern Test Range (AFETR). Payload-class satellites include a variety of spacecraft equipped with specific instruments for various scientific and technological missions. These include communications satellites like Starlink; space stations such as the ISS; scientific satellites like the Hubble; Earth observation satellites from companies like Planet Labs, Umbra, and HawkEye 360; GPS; miniature CubeSats for education and research; and military/defense satellites.

Loading next visibility...
Identifier
47838, 2021-018BD
Orbit
LEO
Country
Flag of USUS
Related business
Manufacturer
SpaceX/Seattle
Mission
Operational Commercial Communications
Bus & Motor
STARLINK, Unknown motor
Mass
260 kg wet, ~248 kg dry
Launch date (UTC)
2021-03-11 (5 years ago)
Launch vehicle
FALCON 9
Launch site
Air Force Eastern Test Range (AFETR)
Object type
Payload
Rocket body
Debris
Shape & HBR
Box + 1 Pan, 10.1 m
Radar Cross Section
13.562 m², Large (>1 m²)

Expand to show TLE details & history
Last TLE update: 23 hours ago

TLE from 23 hours ago
0 STARLINK-2429
1 47838U 21018BD  25291.92113654  .00012615  00000-0  86339-3 0  9999
2 47838  53.0530 168.0430 0001379  92.9104 267.2043 15.06437853255227
Epoch: 2025-10-18T22:06Z
TLE epoch observation values (Epoch: 2025-10-18T22:06:26.197Z)
Latitude
0.00002°
Longitude
168.78864°
Altitude
548.021 km
Speed
7.589 km/s
True Right ascension
11h 12m 10s
True Declination
0° 00' 00"
Sunlit
Object was in daylight at epoch
Visualization orbit readout
Latitude
Unknown
Longitude
Unknown
Altitude
Unknown
Speed
Unknown
Apparent Right ascension
Unknown
Apparent Declination
Unknown
Sunlit
N/A
Visualization observer readout
Local Sidereal Time
16:11:59
Azimuth
Unknown
Elevation
Unknown
Doppler factor
Unknown
Orbital elements
Apogee altitude
548.322 km
Perigee altitude
546.411 km
Semi-major axis
6,925.504 km
Eccentricity
0.00014
Inclination
53.053°
RAAN
168.043°
Arg. of periapsis
92.9104°
True anomaly
267.18852°
Mean anomaly
267.2043°
Eccentric anomaly
267.19641°
Mean motion
3.76588 °/min
Orbital period
95.6 mins
BSTAR
0.00086339
Loading maneuver chart data...
Computing Atmospheric mass density...

Documentation

Showing up to 5 results
|